This demonstration page uses our WeatherBlox Daily Observations layout. Learn more.

39.29038, -76.61219

Hourly Observations for July 20, 2015

Temp ( °F °C ) Dew Point ( °F °C ) Humidity (%) Winds ( mph kmh ) Pressure ( in mb ) Visibility ( mi km ) Precip ( " mm )
12:54 am 00:54 Cloudy 86 30 72 22 62 62 undefined N/A 29.8 1009 N/A 0 0
1:54 am 01:54 undefined 84 29 72 22 66 66 undefined N/A 29.77 1008 N/A 0 0
2:54 am 02:54 Cloudy 84 29 72 22 66 66 undefined N/A 29.77 1008 N/A 0 0
3:54 am 03:54 Cloudy 84 29 72 22 66 66 undefined N/A 29.74 1007 N/A 0 0
4:54 am 04:54 Mostly Clear 84 29 72 22 66 66 undefined N/A 29.74 1007 N/A 0 0
5:54 am 05:54 Mostly Clear 82 28 72 22 70 70 undefined N/A 29.77 1008 N/A 0 0
6:54 am 06:54 Sunny 82 28 72 22 70 70 undefined N/A 29.77 1008 N/A 0 0
7:54 am 07:54 Mostly Sunny 82 28 70 21 66 66 undefined N/A 29.77 1008 N/A 0 0
8:54 am 08:54 Partly Cloudy 88 31 70 21 55 55 undefined N/A 29.77 1008 N/A 0 0
9:54 am 09:54 Cloudy 88 31 66 19 49 49 undefined N/A 29.77 1008 N/A 0 0
10:54 am 10:54 undefined 90 32 68 20 49 49 undefined N/A 29.77 1008 N/A 0 0
11:54 am 11:54 undefined 91 33 70 21 49 49 undefined N/A 29.77 1008 N/A 0 0
12:54 pm 12:54 Mostly Cloudy 93 34 70 21 47 47 undefined N/A 29.77 1008 N/A 0 0
1:54 pm 13:54 Mostly Cloudy 93 34 70 21 47 47 undefined N/A 29.74 1007 N/A 0 0
2:54 pm 14:54 undefined 93 34 68 20 44 44 undefined N/A 29.74 1007 N/A 0 0
3:54 pm 15:54 Mostly Sunny 91 33 66 19 44 44 undefined N/A 29.74 1007 N/A 0 0
4:54 pm 16:54 undefined 93 34 66 19 41 41 undefined N/A 29.71 1006 N/A 0 0
5:54 pm 17:54 Mostly Sunny 91 33 68 20 46 46 undefined N/A 29.71 1006 N/A 0 0
6:54 pm 18:54 Partly Cloudy 91 33 68 20 46 46 undefined N/A 29.71 1006 N/A 0 0
7:54 pm 19:54 undefined 90 32 70 21 52 52 undefined N/A 29.71 1006 N/A 0 0
8:54 pm 20:54 Cloudy 88 31 70 21 55 55 undefined N/A 29.71 1006 N/A 0 0
9:54 pm 21:54 undefined 88 31 72 22 59 59 undefined N/A 29.74 1007 N/A 0 0
10:54 pm 22:54 undefined 86 30 72 22 62 62 undefined N/A 29.71 1006 N/A 0 0
11:54 pm 23:54 Cloudy 84 29 72 22 66 66 undefined N/A 29.71 1006 N/A 0 0

Powered by AerisWeather